Wetbulb
65.95 66.24 66.37 66.99 66.24 65.61 63.61 60.90 59.04 59.94 60.47 60.29 59.95 59.77 58.73 58.56 58.97 59.92 60.66 61.53 61.45 61.35 61.46 60.29 60.30 59.38 57.74 57.69 57.49 55.95 54.38 53.14 53.48 50.85 49.37 49.35 49.83 49.93 49.83 50.19 49.45 48.60 49.61
65.08 65.44 65.93 66.29 65.71 64.96 63.94 60.98 59.41 59.48 60.31 60.14 60.21 60.59 60.24 60.11 60.25 60.56 60.69 61.30 61.24 61.46 60.85 60.56 59.87 59.44 57.82 57.63 56.92 55.83 54.37 54.64 54.18 51.77 50.03 47.79 47.16 48.44 48.49 49.08 48.17 48.19 49.26
64.45 64.75 65.07 65.68 65.72 64.80 64.10 61.60 60.29 59.28 59.66 60.38 60.16 60.80 60.90 60.32 59.10 59.42 59.72 60.50 60.77 61.14 60.82 60.67 60.32 59.91 58.48 57.21 57.34 56.94 55.55 53.93 53.73 52.09 49.44 46.22 44.17 46.43 47.60 47.22 47.82 47.92 48.56
65.04 65.19 64.85 65.44 65.71 65.51 65.64 63.57 61.90 60.09 59.28 60.07 59.56 60.08 58.87 57.29 58.24 59.14 59.93 59.96 60.88 60.73 60.58 60.77 60.56 60.13 59.09 58.93 58.82 57.96 56.94 55.63 53.24 51.36 49.84 48.90 46.84 43.47 43.70 46.23 46.13 46.69 46.26
64.66 64.92 64.80 65.65 66.50 66.80 65.93 65.14 63.43 61.58 60.26 60.02 60.47 60.29 59.76 59.43 59.49 59.58 59.88 60.60 60.57 60.82 60.29 60.75 60.57 59.81 58.88 59.20 58.89 57.25 56.78 55.57 54.19 52.38 50.24 48.61 47.66 46.92 43.64 41.96 44.65 45.42 45.55
64.70 65.43 65.91 66.10 66.08 67.70 66.90 66.03 64.60 62.80 61.39 60.28 61.23 61.47 61.05 60.12 59.10 59.12 58.72 59.08 59.70 59.91 60.61 60.23 60.22 60.00 59.12 58.53 57.81 57.32 56.22 54.94 53.59 52.62 50.47 48.62 46.59 45.42 44.61 43.18 44.17 43.87 45.55
64.29 64.87 64.79 64.89 65.43 65.78 66.32 66.12 65.54 63.91 62.89 61.65 60.53 62.06 61.62 61.87 60.49 59.73 59.03 58.97 58.90 59.13 60.15 60.71 60.26 59.15 59.12 58.24 57.44 56.29 55.49 54.14 52.57 51.39 50.05 49.27 47.98 46.60 45.35 43.58 43.11 42.53 44.90
64.10 64.71 65.18 65.29 65.26 65.64 65.88 65.87 65.51 64.72 64.20 62.57 60.82 62.08 62.38 61.16 60.80 60.90 60.21 59.60 59.41 59.67 61.81 60.78 59.77 59.43 58.63 57.61 56.58 54.80 54.10 54.06 52.61 51.10 49.65 48.71 48.02 47.28 46.06 43.75 42.30 40.96 42.62
63.83 64.47 65.20 65.85 65.65 65.54 65.61 66.18 65.21 65.19 64.92 63.71 63.09 62.88 62.83 62.34 61.67 62.57 62.65 61.11 61.71 60.21 61.50 61.27 59.74 58.90 58.12 56.70 55.85 54.15 53.34 52.59 51.83 50.73 49.46 47.90 47.38 47.01 46.65 45.21 43.87 41.44 38.76
63.62 64.10 64.75 66.01 66.35 66.25 66.08 66.20 65.57 64.69 65.03 65.77 64.95 63.46 62.89 62.72 62.96 63.00 62.95 62.56 62.29 61.35 61.16 60.44 59.77 58.52 57.22 56.52 55.29 53.83 53.37 51.33 50.63 49.89 48.58 47.18 46.35 45.91 46.01 45.33 44.12 43.02 40.61
63.40 63.54 64.52 66.18 66.54 66.60 66.12 65.27 64.93 64.54 64.41 65.30 65.26 64.85 64.12 63.51 63.38 62.85 62.91 62.62 62.53 61.51 60.32 59.66 59.00 57.74 56.38 55.48 54.09 53.77 52.33 50.44 50.24 49.07 45.95 44.87 45.11 44.92 44.58 44.43 43.66 41.74 40.99
63.31 64.01 64.46 65.82 65.69 65.35 65.33 65.26 65.00 64.31 64.06 64.36 64.62 64.75 64.76 63.58 63.14 62.70 63.10 63.43 62.31 62.22 61.10 59.82 58.70 57.33 55.92 55.13 53.47 53.37 51.09 49.35 48.40 43.55 44.72 42.79 42.47 43.96 44.04 43.05 42.23 41.41 41.34
62.27 63.48 64.01 64.87 64.93 64.41 64.76 64.94 64.98 64.45 64.39 63.88 63.50 64.20 63.99 63.36 62.99 62.91 63.14 63.12 62.26 61.76 60.79 59.87 58.63 57.33 56.61 54.38 54.36 52.57 50.28 49.12 46.18 44.17 40.96 40.54 40.70 42.20 43.38 42.52 41.43 41.22 40.73
61.02 62.23 63.08 63.94 64.63 64.50 64.44 64.44 64.60 65.02 64.62 63.88 63.17 63.24 63.56 63.52 63.33 63.12 62.99 63.15 62.28 61.89 61.27 60.73 59.05 58.68 56.79 54.64 53.89 51.89 49.29 45.14 44.55 42.04 40.79 42.28 40.35 41.52 41.62 41.64 41.58 41.22 39.81
58.02 59.24 60.71 62.70 64.13 64.34 64.30 63.98 64.23 64.58 64.78 63.86 63.10 63.82 64.04 63.62 63.07 62.91 62.61 62.75 62.45 61.65 61.53 60.71 59.78 58.94 57.15 55.27 53.82 50.90 48.73 44.37 41.03 40.87 40.18 41.73 41.04 41.34 41.13 41.63 41.64 40.85 39.28
57.73 58.82 60.04 61.31 62.10 63.74 64.27 63.63 63.56 63.97 64.48 63.58 62.93 63.40 63.01 62.70 63.01 62.84 62.47 62.48 62.09 61.62 61.57 60.65 59.26 58.58 56.57 45.49 43.18 47.60 46.48 43.14 40.91 38.30 39.21 40.18 39.53 36.82 35.38 35.13 32.83 35.97 39.52
57.83 58.17 58.63 59.39 60.27 61.75 63.31 63.81 63.87 64.30 63.65 63.32 63.29 62.93 62.89 62.35 62.22 62.07 61.92 61.29 60.92 61.49 60.53 60.24 59.57 57.81 58.17 41.28 41.12 40.14 47.17 41.95 41.18 39.56 39.08 37.03 38.67 36.59 36.49 33.18 32.30 31.35 30.64
57.62 58.12 59.34 59.92 60.64 61.46 61.60 63.27 64.53 63.93 63.46 63.06 63.00 62.95 62.66 62.13 62.31 61.48 60.83 60.76 60.14 59.17 58.91 59.03 59.50 58.51 56.96 41.35 39.76 38.63 44.79 42.12 42.79 40.92 38.82 36.16 36.29 36.69 37.51 35.54 35.65 36.21 34.83
58.49 59.65 60.45 60.67 61.11 61.07 60.96 61.65 63.00 63.55 62.86 62.36 62.51 62.66 62.41 61.75 61.71 60.13 59.70 59.29 58.34 57.66 57.36 57.95 57.23 56.95 55.23 39.59 38.44 39.04 44.12 42.58 39.55 37.73 37.96 36.22 36.67 36.57 37.64 38.42 36.39 36.22 35.94
58.97 59.53 60.42 61.22 61.30 61.49 62.00 61.98 61.99 62.03 61.65 62.25 62.45 62.63 62.27 61.44 60.44 59.78 58.87 58.84 57.66 55.91 55.02 54.84 55.90 51.91 53.99 39.60 37.61 38.78 42.42 43.25 37.30 36.83 36.03 35.92 36.94 34.87 34.80 37.25 36.69 35.42 35.64
59.01 60.43 60.90 60.63 61.32 62.22 62.31 61.37 61.42 61.17 62.06 62.07 62.02 61.59 61.24 60.68 59.90 59.61 58.24 57.27 56.43 55.70 53.82 53.65 54.76 53.65 50.03 42.22 37.05 37.47 41.50 37.62 34.94 35.21 34.96 35.29 34.41 34.28 34.70 35.46 38.28 36.25 36.97
58.70 59.47 58.92 59.06 60.34 61.36 61.64 60.47 59.47 60.50 60.86 60.64 60.20 60.15 60.56 59.94 59.43 58.25 57.25 56.02 55.13 53.67 52.27 50.13 49.87 48.87 48.46 40.43 36.56 36.86 37.85 38.13 35.37 34.33 34.83 35.66 33.95 34.10 33.71 33.22 31.66 30.64 30.94
57.47 57.87 56.76 56.09 56.84 58.37 59.10 57.25 57.76 58.74 58.50 58.41 58.18 58.41 58.62 58.61 57.85 57.88 55.04 53.59 53.26 50.44 48.92 47.24 45.57 45.98 46.91 44.71 36.07 35.77 36.24 35.20 35.44 34.94 34.14 33.77 33.57 33.06 31.53 31.91 30.15 28.58 31.34
53.42 54.35 54.01 53.23 52.84 53.82 54.04 54.72 55.66 56.60 56.98 57.10 57.19 57.66 57.04 56.37 56.52 56.49 55.93 53.62 51.23 50.01 48.61 47.27 46.15 47.17 46.37 44.34 39.15 35.75 36.05 34.46 32.62 32.30 33.11 32.08 31.22 31.31 31.67 29.74 29.63 31.51 31.56
51.03 51.32 50.66 50.19 50.43 51.68 51.70 52.01 52.27 53.31 53.32 53.92 55.31 55.87 56.15 55.54 55.49 55.87 55.55 54.34 54.55 51.27 50.03 49.41 48.87 47.38 43.38 41.72 37.29 35.80 33.67 32.93 31.71 31.52 30.94 29.95 29.63 29.15 30.32 30.21 31.14 30.96 31.09
49.25 48.78 48.81 48.66 48.55 49.16 49.31 49.74 49.70 49.95 50.41 50.72 51.99 52.65 53.42 53.66 54.22 53.89 54.21 42.71 39.27 39.54 37.79 38.52 43.17 46.21 40.32 35.64 35.56 35.12 34.43 32.84 31.50 30.47 29.55 28.97 29.92 29.23 29.72 30.11 30.06 30.69 30.48
MSLP
1009.40 1010.48 1011.51 1012.30 1013.11 1014.67 1015.95 1017.05 1017.86 1018.74 1019.34 1019.69 1019.78 1019.99 1020.39 1020.89 1021.29 1021.49 1021.90 1022.94 1023.11 1023.58 1023.86 1023.88 1024.65 1024.76 1024.88 1025.28 1025.98 1026.19 1026.32 1026.42 1026.65 1026.54 1026.77 1027.17 1027.75 1027.92 1027.84 1027.97 1027.89 1028.17 1028.22
1008.79 1009.88 1011.00 1011.91 1012.81 1014.16 1015.26 1016.45 1017.23 1018.16 1018.74 1018.91 1019.19 1019.40 1019.85 1020.36 1020.88 1021.26 1021.80 1022.66 1022.94 1023.46 1023.73 1023.81 1024.31 1024.62 1024.91 1025.77 1026.03 1026.10 1026.01 1026.18 1026.57 1026.23 1025.94 1025.52 1026.77 1027.22 1027.84 1028.04 1028.20 1028.70 1028.14
1007.94 1009.13 1010.34 1011.28 1012.32 1013.41 1014.46 1015.54 1016.48 1017.44 1018.08 1018.32 1018.76 1019.13 1019.57 1019.96 1020.58 1020.90 1021.58 1022.37 1022.73 1023.18 1023.48 1023.76 1024.00 1024.54 1024.92 1025.35 1025.77 1025.92 1025.88 1025.55 1026.38 1026.76 1026.48 1025.51 1025.47 1025.89 1027.10 1027.95 1028.04 1028.56 1028.24
1007.22 1008.30 1009.54 1010.55 1011.50 1012.40 1013.68 1014.72 1015.71 1016.66 1017.45 1017.89 1018.14 1018.51 1018.82 1019.22 1019.73 1020.30 1021.06 1021.74 1022.42 1022.81 1023.21 1023.55 1023.93 1024.44 1024.58 1024.64 1025.26 1025.45 1025.67 1025.92 1025.56 1026.47 1026.69 1026.94 1026.93 1026.20 1025.91 1027.04 1027.91 1028.42 1028.62
1005.96 1007.22 1008.46 1009.56 1010.64 1011.63 1012.74 1013.90 1014.89 1015.82 1016.63 1017.28 1017.40 1018.14 1018.46 1018.92 1019.43 1019.96 1020.60 1021.24 1021.96 1022.44 1022.82 1023.29 1023.79 1024.27 1024.40 1024.62 1024.89 1025.42 1025.83 1025.81 1025.71 1025.80 1026.27 1026.76 1026.76 1026.90 1026.71 1026.22 1026.68 1027.58 1027.98
1004.66 1006.22 1007.60 1008.76 1009.78 1011.01 1012.04 1013.08 1013.93 1014.87 1015.90 1016.67 1017.16 1017.53 1018.10 1018.21 1018.59 1019.40 1020.14 1020.84 1021.28 1022.02 1022.52 1022.95 1023.56 1023.96 1024.23 1024.57 1025.14 1025.55 1025.79 1025.78 1026.02 1026.07 1026.25 1026.34 1026.51 1026.43 1026.55 1026.32 1026.20 1026.56 1027.14
1003.81 1005.18 1006.23 1007.43 1008.63 1009.82 1011.07 1012.20 1013.08 1013.82 1014.94 1016.02 1016.68 1017.00 1017.58 1018.07 1018.09 1018.77 1019.55 1020.12 1020.61 1021.19 1021.87 1022.53 1023.14 1023.66 1024.07 1024.51 1024.98 1025.46 1025.64 1026.12 1026.22 1026.52 1026.47 1026.62 1026.78 1027.09 1027.02 1027.02 1026.54 1026.60 1026.58
1003.02 1004.21 1005.13 1006.40 1007.57 1008.92 1010.20 1011.25 1012.08 1012.81 1013.67 1014.92 1015.88 1016.62 1017.11 1017.50 1017.81 1018.11 1018.80 1019.39 1019.81 1020.40 1021.06 1022.02 1022.59 1023.15 1023.69 1024.34 1024.81 1025.27 1025.55 1025.79 1026.32 1026.58 1026.73 1026.76 1026.96 1027.23 1027.34 1027.31 1027.36 1026.86 1026.51
1002.25 1003.37 1004.32 1005.60 1006.69 1007.93 1009.27 1010.41 1011.20 1011.94 1012.63 1013.76 1014.96 1015.77 1016.47 1016.88 1017.18 1017.51 1018.38 1018.72 1019.17 1019.52 1020.41 1021.36 1022.06 1022.69 1023.33 1023.99 1024.44 1024.90 1025.43 1025.82 1026.34 1026.55 1026.88 1026.96 1027.22 1027.43 1027.67 1027.84 1027.78 1027.69 1027.22
1001.63 1002.58 1003.56 1004.90 1005.94 1007.09 1008.49 1009.92 1010.72 1011.10 1011.76 1012.80 1013.90 1014.80 1015.54 1016.23 1016.65 1017.16 1017.58 1018.01 1018.46 1018.95 1019.64 1020.71 1021.52 1022.12 1022.88 1023.54 1024.21 1024.58 1025.05 1025.60 1025.92 1026.37 1026.85 1027.13 1027.38 1027.60 1027.81 1028.04 1028.14 1028.21 1028.00
1000.96 1001.81 1002.83 1004.20 1005.38 1006.47 1007.67 1009.10 1010.03 1010.47 1011.07 1011.89 1012.98 1013.90 1014.59 1015.38 1016.08 1016.41 1016.86 1017.42 1017.93 1018.44 1018.94 1019.94 1020.88 1021.60 1022.30 1023.06 1023.79 1024.16 1024.82 1025.47 1025.75 1026.13 1026.91 1027.39 1027.63 1027.58 1027.86 1028.14 1028.25 1028.36 1028.50
1000.26 1001.22 1002.30 1003.66 1004.89 1005.92 1007.01 1008.07 1009.18 1009.76 1010.23 1011.06 1012.09 1013.00 1013.80 1014.51 1015.12 1015.62 1016.00 1016.63 1017.29 1017.79 1018.35 1019.27 1020.20 1020.87 1021.62 1022.27 1023.08 1023.59 1024.43 1025.14 1025.62 1026.46 1026.96 1027.40 1027.64 1027.69 1027.94 1028.09 1028.24 1028.32 1028.57
999.94 1000.95 1002.02 1003.22 1004.36 1005.44 1006.34 1007.07 1008.22 1008.88 1009.47 1010.22 1011.16 1012.25 1012.94 1013.51 1014.13 1014.83 1015.38 1015.91 1016.71 1017.20 1017.78 1018.60 1019.53 1020.18 1020.88 1021.74 1022.42 1023.24 1024.13 1024.82 1025.75 1026.17 1026.88 1027.29 1027.43 1027.55 1027.68 1028.07 1028.25 1028.41 1028.59
999.96 1000.80 1001.88 1002.85 1003.78 1004.80 1005.63 1006.33 1007.27 1008.11 1008.74 1009.38 1010.23 1011.16 1011.92 1012.56 1013.35 1014.14 1014.74 1015.26 1016.02 1016.57 1017.12 1017.87 1018.73 1019.34 1020.14 1021.04 1021.80 1022.69 1023.69 1024.56 1025.32 1026.16 1026.67 1027.06 1027.41 1027.24 1027.48 1027.99 1028.26 1028.40 1028.74
999.90 1000.54 1001.40 1002.27 1003.07 1004.14 1005.10 1005.90 1006.58 1007.39 1008.07 1008.67 1009.28 1010.00 1011.12 1012.00 1012.70 1013.35 1013.99 1014.58 1015.22 1015.82 1016.40 1017.15 1017.86 1018.62 1019.46 1020.19 1021.06 1022.07 1023.10 1023.98 1024.96 1025.88 1026.33 1026.63 1027.09 1027.19 1027.35 1027.58 1028.04 1028.34 1028.80
999.78 1000.50 1001.31 1002.15 1002.80 1003.63 1004.63 1005.49 1006.10 1006.80 1007.49 1008.10 1008.59 1009.37 1010.32 1011.22 1011.85 1012.50 1013.15 1013.79 1014.35 1014.88 1015.44 1015.92 1016.82 1017.65 1018.40 1019.13 1020.35 1021.52 1022.56 1023.48 1024.36 1025.09 1025.85 1026.22 1026.95 1027.50 1027.95 1028.43 1028.84 1028.72 1028.66
1000.00 1001.16 1001.83 1002.55 1003.13 1003.52 1004.10 1004.79 1005.67 1006.38 1007.06 1007.70 1008.30 1008.86 1009.64 1010.42 1011.08 1011.83 1012.40 1012.90 1013.54 1014.14 1014.62 1015.20 1015.90 1016.66 1017.48 1018.43 1019.78 1021.04 1021.86 1022.67 1023.35 1024.32 1025.08 1025.80 1026.30 1027.21 1027.57 1028.62 1029.05 1029.34 1029.54
1000.74 1001.62 1002.04 1002.80 1003.42 1003.82 1004.30 1004.64 1005.10 1005.90 1006.71 1007.34 1007.88 1008.47 1009.08 1009.81 1010.55 1011.22 1011.72 1012.38 1013.04 1013.73 1014.34 1014.76 1015.44 1016.23 1016.98 1018.12 1019.55 1020.79 1021.66 1022.16 1022.68 1023.53 1024.18 1024.85 1025.67 1026.52 1026.81 1027.65 1028.13 1028.32 1028.94
1001.49 1002.10 1002.55 1003.05 1003.48 1003.77 1004.33 1004.63 1004.88 1005.44 1006.30 1007.00 1007.53 1008.11 1008.77 1009.41 1010.06 1010.77 1011.51 1012.21 1012.90 1013.58 1014.09 1014.54 1015.11 1015.68 1016.50 1017.70 1019.09 1020.66 1021.51 1021.68 1022.24 1023.04 1023.56 1024.30 1024.90 1025.66 1026.36 1026.82 1027.23 1027.64 1028.06
1002.29 1002.58 1002.86 1003.19 1003.68 1004.09 1004.50 1004.61 1004.98 1005.62 1006.27 1006.87 1007.46 1008.06 1008.66 1009.31 1009.90 1010.61 1011.42 1012.20 1012.88 1013.47 1013.96 1014.50 1014.94 1015.41 1016.26 1017.48 1018.71 1020.06 1020.80 1021.21 1022.11 1022.73 1023.36 1023.69 1024.09 1025.03 1025.80 1026.13 1026.57 1026.69 1027.20
1002.42 1002.66 1003.06 1003.53 1003.93 1004.55 1004.80 1004.98 1005.58 1006.03 1006.68 1007.35 1007.91 1008.45 1009.01 1009.57 1010.08 1010.71 1011.58 1012.38 1012.87 1013.38 1013.90 1014.35 1014.83 1015.50 1016.22 1017.43 1018.81 1019.58 1019.17 1020.10 1021.18 1021.84 1022.09 1022.83 1023.58 1024.42 1025.08 1025.73 1026.02 1026.08 1026.38
1002.42 1002.98 1003.43 1003.93 1004.51 1004.89 1005.04 1005.57 1006.35 1007.05 1007.57 1008.01 1008.44 1008.86 1009.26 1009.67 1010.12 1010.86 1011.58 1012.24 1012.78 1013.38 1013.80 1014.23 1014.75 1015.67 1016.53 1017.22 1018.05 1018.56 1019.00 1019.40 1020.12 1020.68 1021.35 1022.04 1023.03 1024.00 1024.82 1025.58 1026.45 1026.63 1027.07
1002.58 1003.36 1004.12 1004.97 1005.62 1005.76 1006.02 1006.74 1007.25 1007.60 1008.04 1008.40 1008.74 1009.18 1009.62 1009.97 1010.43 1010.74 1011.54 1012.25 1012.74 1013.32 1013.86 1014.40 1015.04 1015.47 1016.11 1016.86 1017.85 1018.29 1018.70 1019.19 1019.78 1020.30 1020.98 1021.92 1023.00 1024.14 1025.06 1025.66 1026.38 1026.88 1026.95
1003.59 1004.17 1004.90 1005.62 1006.34 1007.03 1007.38 1007.66 1008.07 1008.34 1008.48 1008.66 1009.06 1009.52 1009.88 1010.16 1010.53 1010.83 1011.27 1011.98 1012.52 1013.02 1013.50 1013.94 1014.33 1014.73 1015.24 1016.13 1017.46 1018.33 1018.93 1019.45 1020.14 1020.76 1021.51 1022.44 1023.12 1024.14 1024.96 1025.60 1026.22 1026.22 1026.60
1004.82 1005.38 1006.00 1006.56 1007.00 1007.46 1008.05 1008.53 1008.81 1008.97 1008.99 1009.26 1009.42 1009.78 1009.92 1010.33 1010.50 1010.62 1010.78 1011.30 1011.76 1012.40 1012.94 1013.34 1013.74 1014.16 1014.92 1015.47 1016.56 1017.30 1018.27 1019.28 1020.03 1020.66 1020.96 1022.43 1022.92 1023.94 1024.48 1025.17 1025.68 1025.91 1026.30
1006.02 1006.59 1007.09 1007.41 1007.71 1008.14 1008.59 1009.18 1009.59 1009.72 1009.78 1009.77 1009.64 1009.80 1010.18 1010.24 1010.17 1010.35 1010.49 1011.09 1011.68 1012.35 1012.76 1013.04 1013.29 1013.70 1014.33 1015.18 1015.89 1016.72 1017.55 1018.47 1019.34 1020.42 1021.12 1021.92 1022.39 1022.76 1023.58 1024.14 1024.70 1025.33 1025.45
Wind_Speed
19 18 19 18 18 18 18 18 17 17 14 12 11 10 10 9 8 8 10 11 9 9 7 5 6 4 4 4 5 4 4 3 3 4 6 4 4 3 2 1 3 3 1
20 20 20 19 19 20 19 19 19 19 16 12 11 9 9 9 9 8 10 12 11 10 9 7 7 6 6 6 6 5 3 2 2 4 4 3 6 6 3 2 2 2 2
22 22 21 21 20 21 21 20 20 20 18 16 11 9 9 9 9 10 9 11 12 12 11 9 7 7 6 7 7 6 5 2 2 3 4 4 5 1 7 5 1 1 1
22 22 22 22 22 21 20 21 20 20 19 18 15 16 11 11 10 10 10 11 13 13 12 10 9 8 7 7 7 6 5 4 3 3 1 2 4 4 1 5 5 4 4
23 24 24 23 23 21 20 20 21 20 19 17 16 14 13 11 10 10 12 12 12 13 13 12 10 9 7 6 6 5 6 4 5 3 2 1 2 3 4 6 6 5 4
24 24 23 22 21 19 19 20 21 21 20 19 18 18 16 14 12 11 11 11 10 11 13 13 11 10 8 7 6 6 6 5 3 2 2 2 3 3 3 4 4 2 5
22 23 24 23 22 23 21 19 22 22 22 20 19 17 17 16 15 14 11 12 11 11 13 13 12 10 10 9 8 7 6 5 5 4 3 1 1 2 3 4 5 2 2
21 23 24 22 22 23 22 22 22 21 23 21 20 17 18 13 13 14 12 11 11 11 13 13 13 13 12 10 9 7 7 7 5 5 3 3 2 1 2 4 4 5 5
22 23 23 22 21 22 23 21 21 22 22 22 18 18 16 17 15 14 13 11 11 11 13 14 14 14 13 13 12 8 9 8 7 6 5 4 3 2 1 2 3 4 5
21 21 21 21 19 20 20 19 20 21 21 20 17 16 18 17 15 13 14 14 12 13 14 15 15 15 15 14 12 10 10 8 7 7 7 5 3 3 2 2 2 3 4
20 20 19 19 18 18 19 19 19 20 19 18 17 17 16 17 16 14 15 15 13 15 14 16 17 16 16 15 13 12 11 11 10 7 7 5 5 4 4 3 3 3 3
20 20 19 19 18 18 18 19 19 19 19 18 18 17 16 17 16 16 16 15 15 14 15 16 17 17 17 16 15 14 12 12 11 9 10 7 5 4 5 4 4 4 2
18 18 17 17 17 17 17 18 18 19 18 19 18 17 17 17 18 17 16 16 16 16 17 17 17 17 16 17 16 14 13 11 12 9 9 7 6 8 6 6 5 4 4
17 17 16 16 16 16 16 16 17 17 18 18 19 18 18 18 17 16 17 16 16 16 17 16 17 16 17 17 16 15 14 11 11 10 9 11 8 7 6 7 6 5 4
16 15 15 14 15 15 14 14 15 16 17 18 19 17 17 17 17 17 17 16 16 16 16 16 16 16 15 13 17 15 15 13 12 11 10 9 8 4 4 7 8 6 6
15 12 10 10 12 13 13 14 14 15 16 17 17 17 17 18 17 16 16 16 16 17 17 17 17 17 13 16 17 16 14 15 13 13 11 9 9 8 7 7 10 6 6
15 13 12 10 8 8 11 13 14 13 14 15 15 15 16 17 17 17 17 17 16 16 17 17 17 17 17 19 20 16 15 14 14 13 14 10 10 10 9 7 7 7 6
12 10 10 9 9 7 7 9 12 13 13 13 13 14 15 15 15 15 16 14 13 14 13 14 15 16 13 21 19 18 14 13 15 14 15 13 12 12 12 11 11 10 7
11 9 8 8 8 7 7 9 10 11 11 12 12 12 12 13 14 14 12 10 9 9 11 10 13 14 10 18 21 20 13 11 13 12 13 13 12 16 15 13 12 11 9
11 10 11 10 9 7 7 8 9 9 9 9 9 9 9 10 11 9 7 4 5 6 4 7 10 10 10 21 23 22 10 15 9 11 12 16 14 19 18 11 10 11 10
13 13 12 11 11 8 7 8 8 7 6 5 5 6 7 8 8 5 5 7 7 6 6 8 9 10 9 13 21 26 12 11 11 11 12 11 13 22 21 16 10 10 9
15 15 13 12 10 9 9 11 10 8 7 7 6 6 6 5 5 6 4 5 5 6 4 4 3 4 8 9 22 28 17 14 12 12 10 10 20 20 20 14 5 10 4
14 14 14 14 11 10 11 11 8 8 7 6 5 5 5 5 5 7 7 6 7 6 6 7 7 7 8 10 19 26 24 15 10 8 10 15 19 18 13 11 13 8 5
13 13 14 13 13 12 11 11 9 6 5 3 4 3 3 3 4 4 5 6 7 7 7 7 8 8 8 9 9 11 11 11 6 9 9 12 14 11 9 10 9 8 8
12 11 11 11 11 10 10 10 9 7 6 4 2 2 3 3 5 6 6 7 9 9 8 8 8 7 9 10 11 13 11 9 8 10 10 9 9 9 8 8 9 9 8
11 10 9 9 8 8 7 8 8 7 6 5 4 4 4 5 5 6 6 8 6 2 5 1 5 6 7 13 18 21 20 21 22 11 11 11 10 11 11 11 10 10 10
Wind_Direction
185 171 175 174 176 160 167 175 175 174 181 179 187 182 178 194 193 192 171 178 184 188 197 170 169 202 172 127 150 144 147 127 141 178 166 160 179 227 333 321 339 64 133
183 172 175 176 182 169 172 176 180 178 188 186 193 192 189 189 193 200 171 187 184 190 195 196 186 198 136 163 170 188 174 128 201 310 305 214 166 179 191 294 225 358 274
183 176 178 181 185 174 178 181 183 181 190 193 193 191 188 187 196 192 181 194 191 193 210 193 200 178 179 179 186 200 222 203 172 275 319 308 11 27 146 177 195 273 259
185 182 184 185 187 182 183 184 185 184 190 195 191 192 196 190 195 189 189 186 197 198 200 193 200 192 205 191 189 192 228 254 196 167 215 333 343 323 200 169 170 204 235
185 186 189 187 189 187 185 189 186 187 190 194 200 189 208 200 186 193 189 195 189 200 199 195 196 198 213 191 206 172 214 200 287 222 164 191 259 236 283 309 149 187 193
183 187 189 187 189 186 187 190 191 191 192 195 207 194 201 205 193 195 190 191 186 195 201 196 196 200 206 188 193 194 204 223 237 239 205 238 282 310 270 273 278 309 161
180 185 184 189 188 186 189 190 196 196 192 194 200 204 206 213 206 189 197 195 197 192 194 198 195 197 202 187 191 189 189 195 193 215 196 195 257 320 304 299 287 295 197
183 187 185 188 188 187 190 192 195 201 193 195 201 207 207 204 217 200 198 204 202 196 190 194 195 200 192 186 188 185 194 185 190 189 214 181 175 229 287 304 310 285 230
184 187 184 187 187 188 191 194 198 201 199 197 198 201 207 214 206 209 208 200 206 197 189 188 197 197 193 192 187 193 193 178 190 183 185 210 172 190 238 276 291 302 292
185 185 182 184 187 188 188 193 202 202 202 196 196 204 203 206 215 203 204 209 201 209 185 191 198 194 193 195 191 187 193 192 176 186 184 200 173 167 201 228 265 271 285
185 182 182 178 186 186 187 191 198 204 200 197 196 203 202 203 210 206 211 203 206 199 199 193 198 197 195 192 190 199 190 196 189 177 180 185 161 183 190 212 230 254 264
182 179 180 172 180 184 191 188 195 202 200 200 197 200 203 201 205 211 208 197 206 204 202 195 200 199 196 192 195 198 187 199 184 172 181 179 183 182 210 207 216 230 200
177 171 171 171 178 184 192 190 193 199 200 198 194 199 204 203 205 208 209 201 204 208 205 198 204 203 196 193 198 193 198 189 191 174 175 176 191 192 189 215 195 210 220
171 169 171 177 181 187 192 195 191 198 200 198 197 198 204 206 205 206 209 207 202 210 203 203 205 205 196 199 196 196 187 180 180 176 175 192 191 208 177 207 211 212 234
174 173 175 179 180 182 189 195 195 197 199 202 201 200 199 207 209 207 210 209 207 208 209 205 206 206 203 201 193 190 186 173 167 177 188 184 199 196 167 211 197 196 219
184 168 162 168 178 182 188 193 199 198 199 204 208 202 201 204 209 208 209 211 209 208 211 207 205 204 207 174 172 186 179 173 179 176 183 180 160 142 119 104 64 33 225
177 174 167 168 172 184 194 196 200 198 201 206 208 207 203 206 209 209 210 210 211 210 212 213 205 208 207 160 166 174 187 175 179 177 179 177 186 166 176 138 125 101 93
176 177 160 156 161 171 195 212 192 197 200 208 209 208 207 207 209 211 215 211 208 211 218 216 213 211 208 160 168 174 189 183 181 182 181 179 174 183 188 176 196 198 188
183 160 139 141 146 151 180 191 192 189 194 206 208 205 206 211 211 214 210 210 206 210 221 223 214 213 195 162 168 173 201 190 182 175 184 178 179 183 184 189 192 191 182
167 150 134 122 120 121 156 164 164 174 188 193 198 201 202 209 215 213 187 189 202 203 179 221 226 212 205 166 170 179 195 196 180 182 187 185 188 178 179 198 196 197 199
145 131 117 110 105 119 135 125 133 142 131 142 165 177 191 204 212 188 152 181 196 195 194 210 214 212 206 166 183 190 190 180 178 188 184 188 186 172 171 197 199 201 198
137 122 111 99 99 117 118 103 98 105 120 130 145 159 177 183 196 194 171 181 191 208 221 197 194 215 218 199 195 194 203 186 183 187 183 177 160 170 173 182 115 113 177
123 114 107 102 89 68 93 92 86 97 104 120 130 147 161 179 208 192 197 188 203 185 202 199 213 217 209 210 199 200 202 178 187 177 167 146 155 162 164 160 143 154 187
110 108 107 101 96 89 78 73 70 57 84 103 111 133 209 204 210 217 205 209 214 221 219 212 218 215 206 212 193 201 197 168 146 130 132 149 150 155 174 153 165 189 198
103 98 100 97 90 86 79 65 54 35 40 32 26 290 270 211 267 242 241 223 229 218 218 223 223 216 212 211 182 181 181 174 160 139 140 156 160 165 177 179 192 191 198
99 94 86 83 74 69 68 59 38 25 20 345 341 11 321 302 277 264 258 174 179 134 328 228 225 220 191 164 175 184 177 167 157 153 165 173 176 177 182 185 183 198 203